When you browse on this site, cookies collect data to enhance your experience and personalize the content and advertising you see.
Visit our Privacy Policy to learn more. By continuing to use the site, you agree to this use of cookies and data.
  • In Czech Republic
  • List of Countries
  • For 7 days
  • Water Temperature
  • Weather Map
  • Weather Widgets
  • user-avatar
    Login

    Hourly Weather Viedma

    Today, 15 September, Sunday

    Time Temperature Precipitation Wind Pressure Humidity
    00:00 +15°C° 0 mm 5 mps 750 mmHg 43%
    01:00 +15°C° 0 mm 5 mps 749 mmHg 44%
    02:00 +15°C° 0 mm 5 mps 749 mmHg 45%
    03:00 +14°C° 0 mm 5 mps 749 mmHg 47%
    04:00 +14°C° 0 mm 5 mps 749 mmHg 49%
    05:00 +13°C° 0 mm 5 mps 749 mmHg 51%
    06:00 +13°C° 0 mm 6 mps 749 mmHg 50%
    07:00 +14°C° 0 mm 7 mps 750 mmHg 49%
    08:00 +13°C° 0 mm 8 mps 750 mmHg 48%
    09:00 +15°C° 0 mm 9 mps 751 mmHg 45%
    10:00 +15°C° 0 mm 9 mps 751 mmHg 42%
    11:00 +16°C° 0 mm 9 mps 752 mmHg 38%
    12:00 +16°C° 0 mm 9 mps 752 mmHg 35%
    13:00 +16°C° 0 mm 10 mps 752 mmHg 32%
    14:00 +14°C° 0 mm 10 mps 752 mmHg 29%
    15:00 +15°C° 0 mm 9 mps 753 mmHg 27%
    16:00 +14°C° 0 mm 7 mps 753 mmHg 26%
    17:00 +14°C° 0 mm 6 mps 754 mmHg 24%
    18:00 +12°C° 0 mm 5 mps 755 mmHg 26%
    19:00 +10°C° 0 mm 5 mps 756 mmHg 29%
    20:00 +10°C° 0 mm 4 mps 757 mmHg 31%
    21:00 +8°C° 0 mm 5 mps 758 mmHg 42%
    22:00 +7°C° 0 mm 5 mps 758 mmHg 52%
    23:00 +7°C° 0 mm 6 mps 759 mmHg 63%

    Tomorrow, 16 September, Monday

    Time Temperature Precipitation Wind Pressure Humidity
    00:00 +5°C° 0 mm 6 mps 760 mmHg 62%
    01:00 +6°C° 0 mm 5 mps 760 mmHg 61%
    02:00 +6°C° 0 mm 5 mps 760 mmHg 60%
    03:00 +6°C° 0 mm 5 mps 761 mmHg 62%
    04:00 +5°C° 0 mm 4 mps 761 mmHg 64%
    05:00 +5°C° 0 mm 4 mps 762 mmHg 66%
    06:00 +6°C° 0 mm 5 mps 762 mmHg 60%
    07:00 +8°C° 0 mm 5 mps 762 mmHg 54%
    08:00 +9°C° 0 mm 6 mps 762 mmHg 47%
    09:00 +11°C° 0 mm 7 mps 762 mmHg 40%
    10:00 +12°C° 0 mm 8 mps 762 mmHg 33%
    11:00 +15°C° 0 mm 8 mps 761 mmHg 25%
    12:00 +15°C° 0 mm 9 mps 760 mmHg 23%
    13:00 +16°C° 0 mm 9 mps 760 mmHg 21%
    14:00 +17°C° 0 mm 10 mps 759 mmHg 18%
    15:00 +17°C° 0 mm 8 mps 758 mmHg 20%
    16:00 +16°C° 0 mm 7 mps 758 mmHg 22%
    17:00 +16°C° 0 mm 6 mps 757 mmHg 24%
    18:00 +14°C° 0 mm 5 mps 757 mmHg 28%
    19:00 +12°C° 0 mm 4 mps 758 mmHg 31%
    20:00 +10°C° 0 mm 3 mps 758 mmHg 35%
    21:00 +10°C° 0 mm 3 mps 757 mmHg 41%
    22:00 +10°C° 0 mm 3 mps 757 mmHg 47%
    23:00 +9°C° 0 mm 3 mps 757 mmHg 52%

    Day after tomorrow, 17 September, Tuesday

    Time Temperature Precipitation Wind Pressure Humidity
    00:00 +9°C° 0 mm 3 mps 757 mmHg 56%
    01:00 +8°C° 0 mm 4 mps 756 mmHg 60%
    02:00 +8°C° 0 mm 4 mps 756 mmHg 65%
    03:00 +7°C° 0 mm 4 mps 756 mmHg 66%
    04:00 +7°C° 0 mm 4 mps 755 mmHg 68%
    05:00 +7°C° 0 mm 4 mps 755 mmHg 69%
    06:00 +8°C° 0 mm 5 mps 755 mmHg 65%
    07:00 +9°C° 0 mm 5 mps 754 mmHg 60%
    08:00 +10°C° 0 mm 5 mps 754 mmHg 55%
    09:00 +13°C° 0 mm 6 mps 754 mmHg 49%
    10:00 +15°C° 0 mm 8 mps 753 mmHg 43%
    11:00 +16°C° 0 mm 9 mps 753 mmHg 37%
    12:00 +16°C° 0 mm 10 mps 753 mmHg 37%
    13:00 +16°C° 0 mm 10 mps 752 mmHg 38%
    14:00 +16°C° 0 mm 11 mps 752 mmHg 38%
    15:00 +16°C° 0 mm 10 mps 752 mmHg 40%
    16:00 +15°C° 0 mm 9 mps 752 mmHg 42%
    17:00 +15°C° 0 mm 8 mps 752 mmHg 44%
    18:00 +12°C° 0 mm 7 mps 753 mmHg 52%
    19:00 +10°C° 0 mm 7 mps 753 mmHg 60%
    20:00 +8°C° 0 mm 6 mps 754 mmHg 69%
    21:00 +7°C° 0 mm 5 mps 755 mmHg 73%
    22:00 +6°C° 0 mm 4 mps 755 mmHg 78%
    23:00 +5°C° 0 mm 3 mps 755 mmHg 82%

    18 September, Wednesday

    Time Temperature Precipitation Wind Pressure Humidity
    00:00 +6°C° 0 mm 2 mps 755 mmHg 83%
    01:00 +5°C° 0 mm 2 mps 754 mmHg 84%
    02:00 +5°C° 0 mm 2 mps 754 mmHg 85%
    03:00 +4°C° 0 mm 3 mps 754 mmHg 84%
    04:00 +4°C° 0 mm 3 mps 753 mmHg 82%
    05:00 +4°C° 0 mm 4 mps 753 mmHg 81%
    06:00 +5°C° 0 mm 5 mps 752 mmHg 72%
    07:00 +6°C° 0 mm 7 mps 752 mmHg 63%
    08:00 +9°C° 0 mm 8 mps 751 mmHg 54%
    09:00 +11°C° 0 mm 9 mps 750 mmHg 47%
    10:00 +14°C° 0 mm 11 mps 749 mmHg 39%
    11:00 +18°C° 0 mm 12 mps 748 mmHg 32%
    12:00 +18°C° 0 mm 12 mps 747 mmHg 30%
    13:00 +19°C° 0 mm 11 mps 745 mmHg 27%
    14:00 +21°C° 0 mm 10 mps 744 mmHg 25%
    15:00 +19°C° 0 mm 10 mps 743 mmHg 27%
    16:00 +19°C° 0 mm 10 mps 743 mmHg 29%
    17:00 +19°C° 0 mm 10 mps 742 mmHg 31%
    18:00 +16°C° 0.1 mm 10 mps 743 mmHg 42%
    19:00 +12°C° 0.1 mm 10 mps 744 mmHg 53%
    20:00 +10°C° 0.1 mm 9 mps 745 mmHg 64%
    21:00 +8°C° 0 mm 9 mps 745 mmHg 56%
    22:00 +7°C° 0 mm 8 mps 745 mmHg 48%
    23:00 +8°C° 0 mm 7 mps 746 mmHg 40%

    19 September, Thursday

    Time Temperature Precipitation Wind Pressure Humidity
    00:00 +6°C° 0 mm 7 mps 746 mmHg 40%
    01:00 +6°C° 0 mm 7 mps 746 mmHg 40%
    02:00 +5°C° 0 mm 7 mps 747 mmHg 40%
    03:00 +5°C° 0 mm 8 mps 747 mmHg 40%
    04:00 +4°C° 0 mm 8 mps 748 mmHg 41%
    05:00 +4°C° 0 mm 8 mps 748 mmHg 41%
    06:00 +5°C° 0 mm 9 mps 749 mmHg 40%
    07:00 +6°C° 0 mm 10 mps 750 mmHg 38%
    08:00 +6°C° 0 mm 11 mps 750 mmHg 37%
    09:00 +7°C° 0 mm 12 mps 751 mmHg 34%
    10:00 +8°C° 0 mm 12 mps 752 mmHg 30%
    11:00 +9°C° 0 mm 12 mps 753 mmHg 27%
    12:00 +9°C° 0 mm 12 mps 753 mmHg 27%
    13:00 +11°C° 0 mm 11 mps 754 mmHg 28%
    14:00 +11°C° 0 mm 10 mps 754 mmHg 28%
    15:00 +11°C° 0 mm 9 mps 754 mmHg 27%
    16:00 +11°C° 0 mm 7 mps 754 mmHg 25%
    17:00 +10°C° 0 mm 6 mps 755 mmHg 24%
    18:00 +9°C° 0 mm 5 mps 755 mmHg 26%
    19:00 +7°C° 0 mm 4 mps 756 mmHg 27%
    20:00 +7°C° 0 mm 3 mps 756 mmHg 29%
    21:00 +7°C° 0 mm 3 mps 756 mmHg 29%
    22:00 +6°C° 0 mm 4 mps 756 mmHg 30%
    23:00 +6°C° 0 mm 4 mps 756 mmHg 30%

    20 September, Friday

    Time Temperature Precipitation Wind Pressure Humidity
    00:00 +6°C° 0 mm 4 mps 756 mmHg 37%
    01:00 +5°C° 0 mm 4 mps 757 mmHg 44%
    02:00 +5°C° 0 mm 4 mps 757 mmHg 51%
    03:00 +5°C° 0 mm 4 mps 757 mmHg 53%
    04:00 +5°C° 0 mm 4 mps 757 mmHg 56%
    05:00 +4°C° 0 mm 4 mps 757 mmHg 59%
    06:00 +5°C° 0 mm 4 mps 757 mmHg 53%
    07:00 +7°C° 0 mm 5 mps 757 mmHg 47%
    08:00 +8°C° 0 mm 5 mps 757 mmHg 40%
    09:00 +10°C° 0 mm 6 mps 757 mmHg 35%
    10:00 +13°C° 0 mm 6 mps 757 mmHg 29%
    11:00 +15°C° 0 mm 6 mps 757 mmHg 24%
    12:00 +15°C° 0 mm 6 mps 757 mmHg 22%
    13:00 +16°C° 0 mm 6 mps 756 mmHg 21%
    14:00 +16°C° 0 mm 6 mps 756 mmHg 19%
    15:00 +16°C° 0 mm 6 mps 755 mmHg 20%
    16:00 +16°C° 0 mm 5 mps 755 mmHg 21%
    17:00 +17°C° 0 mm 4 mps 755 mmHg 22%
    18:00 +13°C° 0 mm 3 mps 755 mmHg 25%
    19:00 +12°C° 0 mm 2 mps 755 mmHg 28%
    20:00 +9°C° 0 mm 1 mps 755 mmHg 32%
    21:00 +9°C° 0 mm 1 mps 755 mmHg 33%
    22:00 +7°C° 0 mm 2 mps 755 mmHg 34%
    23:00 +7°C° 0 mm 2 mps 755 mmHg 36%
    Show more